Location: Rounton
(54.4000°N, 1.3500°W)
Time: 08:51:41
(UTC+00:00)

Altair - Pass Details

Date: 04 December 2021
Orbit: 1501 x 1683 km, 47.2° (Epoch: 24 January)

Event Time Altitude Azimuth Distance (km) Brightness Sun altitude
Rises 15:18:29 0° 214° (SW) 4,778 12.3 1.9°
Reaches altitude 10° 15:21:59 10° 205° (SSW) 3,768 11.1 1.5°
Maximum altitude 15:30:05 33° 146° (SE) 2,364 8.7 0.6°
Drops below altitude 10° 15:37:58 10° 87° (E) 3,676 9.0 -0.2°
Sets 15:41:20 0° 79° (ENE) 4,648 9.5 -0.6°
